EUTELSAT 36 WEST A (27508 NORAD) Tracking and Keplerian Element Data

This shows tracking and keplerian element data for the satellite.

Feedback or suggestion? Click here.




ElementValue
Catalog27508
NameEUTELSAT 36 WEST A
Epoch Orbit5979
Epoch Day352.5061987
Epoch Year2018
RAAN88.6382
Inclination0.456
Eccentricity0.0006269
Argument of Perigee241.0954
Mean Anonmoly30.2476
Mean Motion0.98291583
Decay Rate6E-08
L11 27508U 02040A 18352.50619870 .00000006 00000-0 00000+0 0 9998
L22 27508 0.4560 88.6382 0006269 241.0954 30.2476 0.98291583 59799



Live tracking and technical data element details for EUTELSAT 36 WEST A (NORAD 27508). EUTELSAT 36 WEST A can be tracked NOW for your location showing map with azimuth and elevation plus other details from your city location.







IsCatalogInMostPopularTable: catalog: 27508, numindb: 626
Update: records affected: 1



GetName: 27508 EUTELSAT 36 WEST A

Hit Count: updated at: Tue, 20 Jan 2026 19:58:55 GMT